SCP
0 0 0 0 0 0 0 0 0 0 0 0 0 0 0 0 0 0 0 0 0 0 0 0 0 0 0 0 0 0 0 0 0 0 0 0 0 0 0 0 0 0 0 0
0 0 0 0 0 0 0 0 0 0 0 0 0 0 0 0 0 0 0 0 0 0 0 0 0 0 0 0 0 0 0 0 0 0 0 0 0 0 0 0 0 0 0 0
0 0 0 0 0 0 0 0 0 0 0 0 0 -0 0 0 0 0 0 0 0 0 0 0 0 0 0 0 0 0 0 0 0 0 0 0 0 0 0 0 0 0 0 0
0 0 0 0 0 0 0 0 0 0 0 0 0 -0 -0 0 0 0 0 0 0 0 0 0 0 0 0 0 0 0 0 0 0 0 0 0 0 0 0 0 0 0 0 0
0 0 0 0 0 0 0 0 0 0 0 0 0 0 0 0 0 0 0 0 0 0 0 0 0 0 0 0 0 0 0 0 0 0 0 0 0 0 0 0 0 0 0 0
0 0 0 0 0 0 0 0 0 0 0 0 0 0 0 0 0 0 0 0 0 0 0 0 0 0 0 0 0 0 0 0 0 0 0 0 0 0 0 0 0 0 0 0
0 0 0 0 0 0 0 0 0 0 0 0 0 0 0 0 0 0 0 0 0 0 0 0 0 0 0 0 0 0 0 0 0 0 0 0 0 0 0 0 0 0 0 0
0 0 0 0 0 0 0 0 0 0 0 0 0 0 0 0 0 0 0 0 0 0 0 0 0 0 0 0 0 0 0 0 0 0 0 0 0 0 0 0 0 0 0 0
0 0 0 0 0 0 0 0 0 0 0 0 0 0 0 0 0 0 0 0 0 0 0 0 0 0 0 0 0 0 0 0 0 0 0 0 0 0 0 0 0 0 0 0
0 0 0 0 0 0 0 0 0 0 0 0 0 0 0 0 0 0 0 0 0 0 0 0 0 0 0 0 0 0 0 0 0 0 0 0 0 0 0 0 0 0 0 0
0 0 0 0 0 0 0 0 0 0 0 0 0 0 0 0 0 0 0 0 0 0 0 0 0 0 0 -0 -0 0 0 0 0 0 0 0 0 0 0 0 0 0 0 0
0 0 0 0 0 0 0 0 0 0 0 0 0 0 0 0 0 0 0 0 0 0 0 0 0 0 0 0 0 0 0 0 0 0 0 0 0 0 0 0 0 0 0 0
0 0 0 0 0 0 0 0 0 0 0 0 0 0 0 0 0 0 0 0 0 0 0 0 0 -0 -0 -0 0 0 0 0 0 0 0 0 0 0 0 0 0 0 0 0
0 0 0 0 0 0 0 0 0 0 0 0 0 0 0 0 0 0 0 0 0 0 0 0 -0 -0 -0 -0 0 0 0 0 0 0 0 0 0 0 0 0 0 0 0 0
0 0 0 0 0 0 0 0 0 0 0 0 0 0 0 0 -0 -0 -0 -0 -0 0 0 -0 -0 -0 0 0 0 0 0 0 0 0 0 0 0 0 0 0 0 0 0 0
0 0 0 0 0 0 0 0 0 0 0 0 0 0 0 0 0 0 0 0 0 -0 0 0 -0 0 0 0 0 0 0 0 0 0 0 0 0 0 0 0 0 0 0 0
0 0 0 0 0 0 0 0 0 0 0 0 0 0 0 0 0 0 0 0 0 0 0 0 0 0 0 0 0 0 0 0 0 0 0 0 0 0 0 0 0 0 0 0
0 0 0 0 0 0 0 0 0 0 0 0 0 0 0 0 0 0 0 0 0 0 0 0 0 0 0 0 0 0 0 0 0 0 0 0 0 0 0 0 0 0 0 0
0 0 0 0 0 0 0 0 0 0 0 0 0 0 0 0 0 0 0 0 0 0 0 0 0 0 0 0 0 0 0 0 0 0 0 0 0 0 0 0 0 0 0 0
0 0 0 0 0 0 -0 0 0 0 0 0 0 0 0 0 0 0 0 0 0 0 0 0 0 0 0 0 0 0 0 0 0 0 0 0 0 0 0 0 0 0 0 0
0 0 0 0 0 0 0 0 0 0 0 0 0 0 0 0 0 0 0 0 0 0 0 0 0 0 0 0 0 0 0 0 0 0 0 0 0 0 0 0 0 0 0 0
0 0 0 0 0 0 0 0 0 0 0 0 0 0 0 0 0 0 0 0 0 0 0 0 0 0 0 0 0 0 0 0 0 0 0 0 0 0 0 0 0 0 0 0
0 0 0 0 0 0 0 0 0 0 0 0 0 0 0 0 0 0 0 0 0 0 0 0 0 0 0 0 0 0 0 0 0 0 0 0 0 0 0 0 0 0 0 0
0 0 0 0 0 0 0 0 0 0 0 0 0 0 0 0 0 0 0 0 0 0 0 0 0 0 0 0 0 0 0 0 0 0 0 0 0 0 0 0 0 0 0 0
0 0 0 0 0 0 0 0 0 0 0 0 0 0 0 0 0 0 0 0 0 0 0 0 0 0 0 0 0 0 0 0 0 0 0 0 0 0 0 0 0 0 0 0
0 0 0 0 0 0 0 0 0 0 0 0 0 0 0 0 0 0 0 0 0 0 0 0 0 0 0 0 0 0 0 0 0 0 0 0 0 0 0 0 0 0 0 0
Wind_Speed_500mb
23 10 29 23 16 12 6 8 16 13 23 8 16 20 16 30 35 47 54 51 52 59 58 58 58 53 48 57 58 60 62 69 69 70 75 80 87 85 87 86 83 80 80 74
8 30 18 17 17 17 11 11 9 13 7 8 13 21 17 21 33 55 61 67 78 69 61 60 57 53 53 55 64 61 65 71 76 78 80 81 82 88 89 88 88 88 89 85
29 11 30 18 16 26 18 18 7 11 15 8 12 27 21 23 32 50 68 76 79 84 82 78 73 67 59 56 56 68 67 71 73 78 80 82 84 88 92 96 96 96 96 93
19 29 23 16 21 19 26 19 22 5 8 7 8 13 14 13 31 22 51 55 64 71 70 69 66 62 55 58 60 66 68 78 80 77 85 87 92 96 94 93 95 100 102 99
16 22 28 23 27 11 12 8 10 10 9 5 3 8 13 9 14 30 28 45 54 56 53 52 49 50 46 37 43 57 60 66 79 83 85 85 91 93 94 96 97 98 104 104
23 20 22 15 14 22 5 8 6 7 4 10 15 14 10 12 14 12 12 24 9 17 7 16 16 13 11 18 26 32 39 48 64 81 86 90 92 90 95 98 102 99 103 104
11 39 11 18 15 11 19 12 4 7 10 14 16 15 32 10 24 11 17 28 4 7 3 13 9 5 14 17 13 17 29 44 51 70 88 91 94 95 98 98 99 100 105 107
25 9 32 12 13 13 19 21 11 14 10 8 10 16 12 18 46 60 56 14 10 10 19 23 18 23 24 25 20 22 27 27 43 55 65 79 91 99 103 102 102 103 104 108
21 17 4 16 9 26 15 16 13 8 4 3 9 14 16 18 22 30 29 20 20 22 18 10 16 23 27 34 24 24 27 28 29 33 55 62 73 90 103 104 104 101 103 105
6 5 20 15 22 19 18 13 7 1 7 8 10 10 18 13 13 17 19 16 28 23 12 13 20 28 29 33 31 30 35 38 35 32 32 51 67 76 88 95 101 104 102 101
7 6 9 19 22 34 15 11 11 11 10 9 4 11 14 25 20 10 12 28 23 19 10 18 26 30 33 35 40 40 38 40 39 36 38 40 48 69 83 88 91 97 101 102
16 4 7 18 9 17 34 37 22 11 10 7 3 14 12 13 13 26 21 19 19 16 18 21 23 28 39 46 43 43 40 37 39 43 47 49 49 49 62 85 90 87 91 96
27 9 1 7 9 10 25 24 15 8 5 16 15 22 17 13 9 31 24 16 15 15 16 20 28 39 44 46 48 48 44 44 43 45 46 50 53 51 53 59 73 80 85 87
52 9 18 17 8 13 19 13 24 21 13 19 15 35 16 20 13 16 18 7 16 11 15 26 33 36 42 47 48 46 46 41 44 47 46 46 48 49 50 54 58 70 75 80
23 29 16 15 1 6 3 15 28 35 50 23 53 40 46 35 34 15 12 16 7 8 18 25 31 35 42 47 48 46 40 40 44 46 44 42 44 45 44 49 57 58 62 69
16 7 12 7 14 1 3 16 23 34 32 26 45 41 37 20 18 41 6 8 6 5 15 20 24 30 37 44 49 51 46 42 43 42 43 43 42 42 42 41 45 55 57 54
29 13 8 11 9 8 9 50 32 22 21 30 33 55 30 25 15 40 40 29 20 4 9 15 22 29 35 41 46 50 48 44 40 39 38 41 40 39 38 38 38 41 53 56
22 17 7 6 9 11 25 5 28 44 43 32 36 48 31 14 23 16 18 22 16 6 6 15 21 26 31 37 41 45 45 44 42 39 37 35 39 38 35 34 33 34 38 55
23 21 7 11 11 11 25 12 13 15 32 40 49 50 45 26 30 9 12 10 8 2 8 16 20 24 29 35 39 43 46 45 46 45 41 36 34 37 38 37 33 28 29 33
6 22 17 6 10 17 14 10 35 9 29 22 45 43 34 38 16 9 23 10 3 6 10 14 20 26 29 33 37 42 46 50 51 50 49 46 40 34 34 36 35 31 25 25
14 18 29 17 6 17 15 9 23 12 13 9 16 19 25 15 10 33 19 7 1 5 13 17 21 26 30 34 38 42 44 46 49 51 50 48 45 41 36 31 31 32 31 24
21 15 13 12 17 26 25 4 29 11 12 25 27 24 30 37 29 21 13 6 1 4 6 12 19 24 28 32 35 39 42 45 46 47 49 48 47 45 41 36 29 25 28 30
12 16 16 21 21 3 27 11 23 21 29 26 29 27 28 26 21 13 6 2 7 14 21 24 26 27 28 31 34 38 41 44 47 48 47 46 45 46 43 41 35 27 24 24
8 5 7 7 12 10 27 20 25 25 24 29 27 27 23 20 14 8 5 9 14 18 23 29 33 33 33 35 36 39 42 45 46 49 50 49 46 42 42 41 35 31 28 24
9 16 14 4 4 8 19 33 31 28 29 33 31 26 20 15 13 12 12 17 22 26 29 33 36 39 41 43 44 44 45 47 49 48 48 48 46 42 42 39 39 35 28 28
13 12 16 15 18 11 6 33 30 32 32 30 27 22 17 14 14 14 17 22 28 32 35 37 41 45 46 49 51 51 51 50 50 51 50 49 48 44 39 41 42 36 34 31
Wind_Direction_500mb
177 191 208 200 211 227 204 209 206 248 259 229 247 251 258 272 278 282 285 283 277 271 267 261 257 256 262 251 246 242 246 251 249 246 242 240 242 241 241 243 244 244 243 239
149 222 206 194 216 221 254 272 264 285 271 305 309 282 257 262 265 267 265 266 266 264 261 260 261 257 257 261 252 246 249 249 252 252 252 247 247 247 247 246 246 246 245 243
209 210 185 208 207 207 219 227 235 227 325 328 337 293 269 270 274 271 259 257 261 260 261 262 260 260 258 259 254 251 254 253 254 256 253 249 245 245 247 247 249 248 246 244
243 249 209 194 217 196 230 208 225 260 339 256 79 289 259 276 277 277 265 260 253 260 260 264 262 263 259 255 258 258 253 251 254 254 251 251 249 246 250 253 254 253 250 247
217 185 215 211 209 190 213 148 185 201 238 290 213 296 275 210 276 277 275 263 254 256 257 256 263 261 258 271 263 257 259 258 254 252 253 255 253 256 257 256 255 256 257 252
225 211 196 208 188 193 171 121 109 77 77 265 194 191 240 218 217 245 191 17 102 72 161 133 155 182 235 265 262 253 254 262 260 253 253 255 257 258 256 255 255 257 259 259
193 235 259 177 163 158 166 140 176 200 206 234 196 194 247 281 281 246 276 309 65 10 193 186 190 119 46 9 346 347 275 256 257 259 254 254 259 260 259 260 260 260 260 260
208 217 217 198 195 173 182 175 164 182 192 237 178 232 248 234 247 260 273 254 142 115 119 104 53 26 13 4 343 329 325 331 261 256 262 263 259 259 261 262 261 261 261 263
197 237 211 181 152 161 186 201 160 95 27 126 224 288 288 248 268 259 235 196 149 132 136 67 30 8 350 341 332 328 325 320 313 279 260 266 267 262 259 262 262 262 261 262
233 235 240 184 174 220 180 155 168 24 205 234 253 256 234 311 265 246 251 160 154 140 123 44 11 354 354 346 339 326 315 309 308 303 291 265 258 262 266 265 263 262 261 260
201 113 311 132 202 195 183 198 195 153 174 193 231 253 223 236 262 143 120 149 129 107 81 13 2 355 336 326 326 324 321 314 305 299 294 292 272 257 256 260 265 263 262 259
180 178 210 210 340 185 212 212 191 181 198 221 155 260 217 130 126 129 126 114 78 49 36 27 353 336 331 327 322 320 315 315 312 302 294 295 291 277 259 253 256 262 262 261
185 208 101 328 321 327 212 214 190 213 121 211 183 252 214 55 137 100 102 57 17 22 1 354 341 337 332 326 321 320 314 308 305 301 296 293 296 293 278 263 257 258 261 262
170 157 190 205 209 143 205 195 217 215 228 219 237 254 285 266 335 318 37 357 97 71 349 339 338 343 340 337 332 322 315 310 304 298 293 296 297 293 286 272 259 256 258 261
177 215 203 225 148 83 148 191 210 213 231 224 247 249 248 265 285 298 32 116 101 13 351 344 341 341 340 342 343 338 330 321 316 306 299 298 300 296 286 277 267 257 255 257
188 219 154 236 244 152 210 229 215 224 238 237 252 265 255 242 252 285 300 171 127 25 349 345 340 340 341 344 348 349 341 330 325 319 310 307 307 305 300 288 274 265 256 253
181 144 134 245 164 78 309 245 219 228 221 220 237 243 272 267 257 264 258 250 257 252 303 322 336 337 339 342 346 349 346 337 330 326 318 312 312 313 308 299 288 273 260 247
178 173 142 165 126 200 247 163 213 223 234 220 247 254 251 245 225 195 182 180 166 164 297 323 325 327 333 336 339 342 344 342 337 331 324 317 314 316 314 308 298 287 269 260
193 181 160 167 195 299 288 221 153 168 250 223 232 249 252 212 156 139 153 163 134 73 331 334 335 333 331 331 335 338 339 340 340 339 335 328 324 321 320 316 310 302 289 272
111 195 198 148 170 198 267 198 192 118 263 194 215 234 238 161 197 172 171 171 123 354 327 327 329 332 330 328 331 334 335 339 340 341 341 337 331 323 320 318 315 308 295 279
183 195 204 187 195 273 223 194 147 136 248 177 179 177 155 169 201 153 162 158 167 305 322 330 332 329 328 327 329 330 333 335 338 340 339 336 333 328 321 316 314 311 298 284
180 200 190 193 209 261 173 107 188 192 153 156 152 147 126 134 137 145 147 153 204 313 340 352 352 348 342 336 331 328 328 329 333 337 339 337 334 331 327 319 312 304 300 296
195 200 191 190 210 211 164 180 195 172 176 179 173 157 151 148 153 156 167 263 322 331 333 333 334 334 333 333 332 328 329 327 328 330 332 337 338 334 330 326 321 310 298 292
230 183 167 116 211 191 179 175 187 194 201 188 180 172 174 176 181 193 257 294 307 313 317 320 322 323 326 327 327 324 323 321 320 319 323 326 327 336 334 327 325 321 310 295
197 147 167 260 185 103 200 202 199 187 187 182 183 189 186 185 206 235 257 284 298 306 311 313 316 318 320 321 322 321 319 318 318 319 318 317 319 323 328 333 325 322 320 309
197 166 179 224 160 162 166 200 196 189 183 185 192 187 194 205 225 254 276 289 296 302 306 307 308 309 311 313 315 315 314 314 314 315 318 317 316 318 322 323 322 324 319 311
Wind_Speed_850mb
23 10 29 23 16 12 6 8 16 13 23 8 16 20 16 30 35 47 54 51 52 59 58 58 58 53 48 57 58 60 62 69 69 70 75 80 87 85 87 86 83 80 80 74
8 30 18 17 17 17 11 11 9 13 7 8 13 21 17 21 33 55 61 67 78 69 61 60 57 53 53 55 64 61 65 71 76 78 80 81 82 88 89 88 88 88 89 85
29 11 30 18 16 26 18 18 7 11 15 8 12 27 21 23 32 50 68 76 79 84 82 78 73 67 59 56 56 68 67 71 73 78 80 82 84 88 92 96 96 96 96 93
19 29 23 16 21 19 26 19 22 5 8 7 8 13 14 13 31 22 51 55 64 71 70 69 66 62 55 58 60 66 68 78 80 77 85 87 92 96 94 93 95 100 102 99
16 22 28 23 27 11 12 8 10 10 9 5 3 8 13 9 14 30 28 45 54 56 53 52 49 50 46 37 43 57 60 66 79 83 85 85 91 93 94 96 97 98 104 104
23 20 22 15 14 22 5 8 6 7 4 10 15 14 10 12 14 12 12 24 9 17 7 16 16 13 11 18 26 32 39 48 64 81 86 90 92 90 95 98 102 99 103 104
11 39 11 18 15 11 19 12 4 7 10 14 16 15 32 10 24 11 17 28 4 7 3 13 9 5 14 17 13 17 29 44 51 70 88 91 94 95 98 98 99 100 105 107
25 9 32 12 13 13 19 21 11 14 10 8 10 16 12 18 46 60 56 14 10 10 19 23 18 23 24 25 20 22 27 27 43 55 65 79 91 99 103 102 102 103 104 108
21 17 4 16 9 26 15 16 13 8 4 3 9 14 16 18 22 30 29 20 20 22 18 10 16 23 27 34 24 24 27 28 29 33 55 62 73 90 103 104 104 101 103 105
6 5 20 15 22 19 18 13 7 1 7 8 10 10 18 13 13 17 19 16 28 23 12 13 20 28 29 33 31 30 35 38 35 32 32 51 67 76 88 95 101 104 102 101
7 6 9 19 22 34 15 11 11 11 10 9 4 11 14 25 20 10 12 28 23 19 10 18 26 30 33 35 40 40 38 40 39 36 38 40 48 69 83 88 91 97 101 102
16 4 7 18 9 17 34 37 22 11 10 7 3 14 12 13 13 26 21 19 19 16 18 21 23 28 39 46 43 43 40 37 39 43 47 49 49 49 62 85 90 87 91 96
27 9 1 7 9 10 25 24 15 8 5 16 15 22 17 13 9 31 24 16 15 15 16 20 28 39 44 46 48 48 44 44 43 45 46 50 53 51 53 59 73 80 85 87
52 9 18 17 8 13 19 13 24 21 13 19 15 35 16 20 13 16 18 7 16 11 15 26 33 36 42 47 48 46 46 41 44 47 46 46 48 49 50 54 58 70 75 80
23 29 16 15 1 6 3 15 28 35 50 23 53 40 46 35 34 15 12 16 7 8 18 25 31 35 42 47 48 46 40 40 44 46 44 42 44 45 44 49 57 58 62 69
16 7 12 7 14 1 3 16 23 34 32 26 45 41 37 20 18 41 6 8 6 5 15 20 24 30 37 44 49 51 46 42 43 42 43 43 42 42 42 41 45 55 57 54
29 13 8 11 9 8 9 50 32 22 21 30 33 55 30 25 15 40 40 29 20 4 9 15 22 29 35 41 46 50 48 44 40 39 38 41 40 39 38 38 38 41 53 56
22 17 7 6 9 11 25 5 28 44 43 32 36 48 31 14 23 16 18 22 16 6 6 15 21 26 31 37 41 45 45 44 42 39 37 35 39 38 35 34 33 34 38 55
23 21 7 11 11 11 25 12 13 15 32 40 49 50 45 26 30 9 12 10 8 2 8 16 20 24 29 35 39 43 46 45 46 45 41 36 34 37 38 37 33 28 29 33
6 22 17 6 10 17 14 10 35 9 29 22 45 43 34 38 16 9 23 10 3 6 10 14 20 26 29 33 37 42 46 50 51 50 49 46 40 34 34 36 35 31 25 25
14 18 29 17 6 17 15 9 23 12 13 9 16 19 25 15 10 33 19 7 1 5 13 17 21 26 30 34 38 42 44 46 49 51 50 48 45 41 36 31 31 32 31 24
21 15 13 12 17 26 25 4 29 11 12 25 27 24 30 37 29 21 13 6 1 4 6 12 19 24 28 32 35 39 42 45 46 47 49 48 47 45 41 36 29 25 28 30
12 16 16 21 21 3 27 11 23 21 29 26 29 27 28 26 21 13 6 2 7 14 21 24 26 27 28 31 34 38 41 44 47 48 47 46 45 46 43 41 35 27 24 24
8 5 7 7 12 10 27 20 25 25 24 29 27 27 23 20 14 8 5 9 14 18 23 29 33 33 33 35 36 39 42 45 46 49 50 49 46 42 42 41 35 31 28 24
9 16 14 4 4 8 19 33 31 28 29 33 31 26 20 15 13 12 12 17 22 26 29 33 36 39 41 43 44 44 45 47 49 48 48 48 46 42 42 39 39 35 28 28
13 12 16 15 18 11 6 33 30 32 32 30 27 22 17 14 14 14 17 22 28 32 35 37 41 45 46 49 51 51 51 50 50 51 50 49 48 44 39 41 42 36 34 31
Wind_Direction_850mb
177 191 208 200 211 227 204 209 206 248 259 229 247 251 258 272 278 282 285 283 277 271 267 261 257 256 262 251 246 242 246 251 249 246 242 240 242 241 241 243 244 244 243 239
149 222 206 194 216 221 254 272 264 285 271 305 309 282 257 262 265 267 265 266 266 264 261 260 261 257 257 261 252 246 249 249 252 252 252 247 247 247 247 246 246 246 245 243
209 210 185 208 207 207 219 227 235 227 325 328 337 293 269 270 274 271 259 257 261 260 261 262 260 260 258 259 254 251 254 253 254 256 253 249 245 245 247 247 249 248 246 244
243 249 209 194 217 196 230 208 225 260 339 256 79 289 259 276 277 277 265 260 253 260 260 264 262 263 259 255 258 258 253 251 254 254 251 251 249 246 250 253 254 253 250 247
217 185 215 211 209 190 213 148 185 201 238 290 213 296 275 210 276 277 275 263 254 256 257 256 263 261 258 271 263 257 259 258 254 252 253 255 253 256 257 256 255 256 257 252
225 211 196 208 188 193 171 121 109 77 77 265 194 191 240 218 217 245 191 17 102 72 161 133 155 182 235 265 262 253 254 262 260 253 253 255 257 258 256 255 255 257 259 259
193 235 259 177 163 158 166 140 176 200 206 234 196 194 247 281 281 246 276 309 65 10 193 186 190 119 46 9 346 347 275 256 257 259 254 254 259 260 259 260 260 260 260 260
208 217 217 198 195 173 182 175 164 182 192 237 178 232 248 234 247 260 273 254 142 115 119 104 53 26 13 4 343 329 325 331 261 256 262 263 259 259 261 262 261 261 261 263
197 237 211 181 152 161 186 201 160 95 27 126 224 288 288 248 268 259 235 196 149 132 136 67 30 8 350 341 332 328 325 320 313 279 260 266 267 262 259 262 262 262 261 262
233 235 240 184 174 220 180 155 168 24 205 234 253 256 234 311 265 246 251 160 154 140 123 44 11 354 354 346 339 326 315 309 308 303 291 265 258 262 266 265 263 262 261 260
201 113 311 132 202 195 183 198 195 153 174 193 231 253 223 236 262 143 120 149 129 107 81 13 2 355 336 326 326 324 321 314 305 299 294 292 272 257 256 260 265 263 262 259
180 178 210 210 340 185 212 212 191 181 198 221 155 260 217 130 126 129 126 114 78 49 36 27 353 336 331 327 322 320 315 315 312 302 294 295 291 277 259 253 256 262 262 261
185 208 101 328 321 327 212 214 190 213 121 211 183 252 214 55 137 100 102 57 17 22 1 354 341 337 332 326 321 320 314 308 305 301 296 293 296 293 278 263 257 258 261 262
170 157 190 205 209 143 205 195 217 215 228 219 237 254 285 266 335 318 37 357 97 71 349 339 338 343 340 337 332 322 315 310 304 298 293 296 297 293 286 272 259 256 258 261
177 215 203 225 148 83 148 191 210 213 231 224 247 249 248 265 285 298 32 116 101 13 351 344 341 341 340 342 343 338 330 321 316 306 299 298 300 296 286 277 267 257 255 257
188 219 154 236 244 152 210 229 215 224 238 237 252 265 255 242 252 285 300 171 127 25 349 345 340 340 341 344 348 349 341 330 325 319 310 307 307 305 300 288 274 265 256 253
181 144 134 245 164 78 309 245 219 228 221 220 237 243 272 267 257 264 258 250 257 252 303 322 336 337 339 342 346 349 346 337 330 326 318 312 312 313 308 299 288 273 260 247
178 173 142 165 126 200 247 163 213 223 234 220 247 254 251 245 225 195 182 180 166 164 297 323 325 327 333 336 339 342 344 342 337 331 324 317 314 316 314 308 298 287 269 260
193 181 160 167 195 299 288 221 153 168 250 223 232 249 252 212 156 139 153 163 134 73 331 334 335 333 331 331 335 338 339 340 340 339 335 328 324 321 320 316 310 302 289 272
111 195 198 148 170 198 267 198 192 118 263 194 215 234 238 161 197 172 171 171 123 354 327 327 329 332 330 328 331 334 335 339 340 341 341 337 331 323 320 318 315 308 295 279
183 195 204 187 195 273 223 194 147 136 248 177 179 177 155 169 201 153 162 158 167 305 322 330 332 329 328 327 329 330 333 335 338 340 339 336 333 328 321 316 314 311 298 284
180 200 190 193 209 261 173 107 188 192 153 156 152 147 126 134 137 145 147 153 204 313 340 352 352 348 342 336 331 328 328 329 333 337 339 337 334 331 327 319 312 304 300 296
195 200 191 190 210 211 164 180 195 172 176 179 173 157 151 148 153 156 167 263 322 331 333 333 334 334 333 333 332 328 329 327 328 330 332 337 338 334 330 326 321 310 298 292
230 183 167 116 211 191 179 175 187 194 201 188 180 172 174 176 181 193 257 294 307 313 317 320 322 323 326 327 327 324 323 321 320 319 323 326 327 336 334 327 325 321 310 295
197 147 167 260 185 103 200 202 199 187 187 182 183 189 186 185 206 235 257 284 298 306 311 313 316 318 320 321 322 321 319 318 318 319 318 317 319 323 328 333 325 322 320 309
197 166 179 224 160 162 166 200 196 189 183 185 192 187 194 205 225 254 276 289 296 302 306 307 308 309 311 313 315 315 314 314 314 315 318 317 316 318 322 323 322 324 319 311